OpenBCM V1.07b12 (Linux)

Packet Radio Mailbox

DB0FHN

[JN59NK Nuernberg]

 Login: GUEST





  
CX2SA  > KEPS     13.08.04 05:46l 151 Lines 3941 Bytes #999 (0) @ AMSAT
BID : ORB04225.O
Read: GUEST
Subj: Orbital Elements  04225.OSCAR
Path: DB0FHN<DB0RGB<OK0PPL<DB0RES<ON0AR<VE3FJB<YV6BTF<CX2SA
Sent: 040813/0438Z @:CX2SA.LAV.URY.SA #:64823 [Minas] FBB7.00e $:ORB04225.O
From: CX2SA@CX2SA.LAV.URY.SA
To  : KEPS@AMSAT


HR AMSAT ORBITAL ELEMENTS FOR OSCAR SATELLITES
FROM WA5QGD FORT WORTH,TX August 12, 2004
SEND SUBSCRIBE/UNSUBSCRIBE TO majordomo@amsat.org ONLY
BID: ORB04225.O
TO ALL RADIO AMATEURS BT

Satellite: AO-07
Catalog number: 07530
Epoch time:      04225.70011990
Element set:     307
Inclination:      101.6792 deg
RA of node:       271.5447 deg
Eccentricity:    0.0012264
Arg of perigee:   111.8425 deg
Mean anomaly:     248.3952 deg
Mean motion:   12.53568910 rev/day
Decay rate:       -2.9e-07 rev/day^2
Epoch rev:           36099
Checksum:              288

Satellite: AO-10
Catalog number: 14129
Epoch time:      04222.07036874
Element set:      88
Inclination:       26.5380 deg
RA of node:        77.6641 deg
Eccentricity:    0.6023638
Arg of perigee:   114.1141 deg
Mean anomaly:     318.2309 deg
Mean motion:    2.05870254 rev/day
Decay rate:      -3.43e-06 rev/day^2
Epoch rev:           15910
Checksum:              271

Satellite: UO-11
Catalog number: 14781
Epoch time:      04225.66396608
Element set:     550
Inclination:       98.1767 deg
RA of node:       211.4542 deg
Eccentricity:    0.0007976
Arg of perigee:   271.1273 deg
Mean anomaly:      88.9019 deg
Mean motion:   14.78967373 rev/day
Decay rate:       3.59e-06 rev/day^2
Epoch rev:            9619
Checksum:              341

Satellite: RS-10/11
Catalog number: 18129
Epoch time:      04225.19997762
Element set:     485
Inclination:       82.9237 deg
RA of node:       106.7028 deg
Eccentricity:    0.0011845
Arg of perigee:   157.7181 deg
Mean anomaly:     202.4488 deg
Mean motion:   13.72742423 rev/day
Decay rate:        2.4e-07 rev/day^2
Epoch rev:           85868
Checksum:              323

Satellite: FO-20
Catalog number: 20480
Epoch time:      04224.65220900
Element set:    0696
Inclination:      099.0418 deg
RA of node:       091.6166 deg
Eccentricity:    0.0539793
Arg of perigee:   221.1689 deg
Mean anomaly:     134.7490 deg
Mean motion:   12.83341036 rev/day
Decay rate:       -5.0e-07 rev/day^2
Epoch rev:           67979
Checksum:              312

Satellite: RS-12/13
Catalog number: 21089
Epoch time:      04225.79873944
Element set:     716
Inclination:       82.9239 deg
RA of node:       139.7643 deg
Eccentricity:    0.0027772
Arg of perigee:   216.9532 deg
Mean anomaly:     142.9709 deg
Mean motion:   13.74439787 rev/day
Decay rate:        4.1e-07 rev/day^2
Epoch rev:           67813
Checksum:              350

Satellite: RS-15
Catalog number: 23439
Epoch time:      04224.16096230
Element set:     798
Inclination:       64.8154 deg
RA of node:       248.9291 deg
Eccentricity:    0.0153935
Arg of perigee:    11.4990 deg
Mean anomaly:     348.9385 deg
Mean motion:   11.27549517 rev/day
Decay rate:       -4.2e-07 rev/day^2
Epoch rev:           39643
Checksum:              328

Satellite: FO-29
Catalog number: 24278
Epoch time:      04224.85770182
Element set:     783
Inclination:       98.5865 deg
RA of node:       309.5322 deg
Eccentricity:    0.0349806
Arg of perigee:   257.4785 deg
Mean anomaly:      98.7019 deg
Mean motion:   13.52901478 rev/day
Decay rate:        1.0e-07 rev/day^2
Epoch rev:           39436
Checksum:              346

Satellite: SO-33
Catalog number: 25509
Epoch time:      04225.66269376
Element set:     172
Inclination:       31.4342 deg
RA of node:       336.3092 deg
Eccentricity:    0.0355832
Arg of perigee:   349.6395 deg
Mean anomaly:       9.7072 deg
Mean motion:   14.27858672 rev/day
Decay rate:       1.82e-06 rev/day^2
Epoch rev:           30269
Checksum:              319

Satellite: AO-40
Catalog number: 26609
Epoch time:      04224.39036627
Element set:     422
Inclination:        9.9769 deg
RA of node:       347.5420 deg
Eccentricity:    0.7973909
Arg of perigee:   310.1505 deg
Mean anomaly:       3.9814 deg
Mean motion:    1.25586933 rev/day
Decay rate:      -3.23e-06 rev/day^2
Epoch rev:            1736
Checksum:              310



Read previous mail | Read next mail


 07.11.2025 15:14:47lGo back Go up